| time (UTC) | temp C | wind direction | speed KPH | gust KPH | rain 1hr cm | rain 24hr cm | rain mn cm | humidity % | barometer mb |
| 20260503224705 | 10 | 273 | 1.6 | 3.2 | 0.00 | 0.00 | 0.00 | 45 | 1005.6 |
| 20260503224204 | 10 | 273 | 3.2 | 4.8 | 0.00 | 0.00 | 0.00 | 46 | 1005.6 |
| 20260503222705 | 10 | 273 | 0.0 | 4.8 | 0.00 | 0.00 | 0.00 | 47 | 1005.6 |
| 20260503222205 | 10 | 273 | 3.2 | 8.0 | 0.00 | 0.00 | 0.00 | 47 | 1005.6 |
| 20260503220704 | 10 | 294 | 1.6 | 4.8 | 0.00 | 0.00 | 0.00 | 46 | 1005.7 |
| 20260503220205 | 10 | 320 | 3.2 | 9.7 | 0.00 | 0.00 | 0.00 | 48 | 1005.7 |
| 20260503214704 | 10 | 299 | 4.8 | 8.0 | 0.00 | 0.00 | 0.00 | 46 | 1005.7 |
| 20260503214205 | 10 | 277 | 1.6 | 8.0 | 0.00 | 0.00 | 0.00 | 48 | 1005.8 |
| 20260503212705 | 10 | 287 | 6.4 | 11.3 | 0.00 | 0.03 | 0.00 | 47 | 1005.8 |
| 20260503212204 | 10 | 292 | 4.8 | 11.3 | 0.00 | 0.03 | 0.00 | 46 | 1005.9 |
| 20260503210704 | 10 | 269 | 1.6 | 8.0 | 0.00 | 0.03 | 0.00 | 46 | 1005.9 |
| 20260503210204 | 10 | 264 | 4.8 | 11.3 | 0.00 | 0.03 | 0.00 | 46 | 1005.8 |
| 20260503204704 | 10 | 276 | 4.8 | 8.0 | 0.00 | 0.03 | 0.00 | 46 | 1005.9 |
| 20260503204204 | 10 | 298 | 4.8 | 14.5 | 0.00 | 0.03 | 0.00 | 45 | 1005.9 |
| 20260503202705 | 10 | 320 | 3.2 | 9.7 | 0.00 | 0.03 | 0.00 | 48 | 1005.9 |
| 20260503202205 | 10 | 311 | 4.8 | 12.9 | 0.00 | 0.03 | 0.00 | 48 | 1006.0 |
| 20260503200704 | 10 | 281 | 4.8 | 11.3 | 0.00 | 0.03 | 0.00 | 49 | 1006.1 |
| 20260503200205 | 10 | 293 | 6.4 | 19.3 | 0.00 | 0.03 | 0.00 | 49 | 1006.2 |
| 20260503194704 | 9 | 255 | 4.8 | 16.1 | 0.00 | 0.03 | 0.00 | 51 | 1006.2 |
| 20260503194205 | 9 | 276 | 3.2 | 14.5 | 0.00 | 0.03 | 0.00 | 52 | 1006.3 |
| 20260503192705 | 9 | 260 | 4.8 | 9.7 | 0.00 | 0.03 | 0.00 | 51 | 1006.5 |
| 20260503192204 | 9 | 276 | 6.4 | 19.3 | 0.00 | 0.03 | 0.00 | 50 | 1006.5 |
| 20260503190704 | 9 | 311 | 9.7 | 20.9 | 0.00 | 0.03 | 0.00 | 50 | 1006.7 |
| 20260503190205 | 9 | 273 | 4.8 | 16.1 | 0.00 | 0.03 | 0.00 | 50 | 1006.7 |
| 20260503184704 | 9 | 296 | 4.8 | 9.7 | 0.00 | 0.03 | 0.00 | 50 | 1006.8 |
| 20260503184204 | 9 | 290 | 8.0 | 20.9 | 0.00 | 0.03 | 0.00 | 50 | 1006.9 |
| 20260503182705 | 8 | 296 | 4.8 | 11.3 | 0.00 | 0.03 | 0.00 | 51 | 1006.9 |
| 20260503182205 | 8 | 282 | 6.4 | 24.1 | 0.00 | 0.03 | 0.00 | 50 | 1007.0 |
| 20260503180705 | 9 | 276 | 4.8 | 11.3 | 0.00 | 0.03 | 0.00 | 50 | 1007.0 |
| 20260503180205 | 9 | 288 | 9.7 | 24.1 | 0.00 | 0.03 | 0.00 | 49 | 1007.0 |
| 20260503174705 | 9 | 295 | 8.0 | 14.5 | 0.00 | 0.03 | 0.00 | 48 | 1007.1 |
| 20260503174204 | 10 | 292 | 14.5 | 27.4 | 0.00 | 0.05 | 0.00 | 47 | 1007.1 |
| 20260503172705 | 10 | 289 | 6.4 | 19.3 | 0.00 | 0.05 | 0.00 | 51 | 1007.2 |
| 20260503172204 | 10 | 285 | 8.0 | 27.4 | 0.00 | 0.05 | 0.00 | 49 | 1007.3 |
| 20260503170705 | 10 | 294 | 9.7 | 20.9 | 0.00 | 0.05 | 0.00 | 47 | 1007.5 |
| 20260503170205 | 10 | 301 | 9.7 | 24.1 | 0.00 | 0.05 | 0.00 | 49 | 1007.5 |
| 20260503160204 | 9 | 283 | 8.0 | 24.1 | 0.00 | 0.05 | 0.00 | 47 | 1008.2 |
| 20260503150704 | 10 | 286 | 9.7 | 19.3 | 0.00 | 0.05 | 0.00 | 50 | 1008.6 |
| 20260503150204 | 9 | 294 | 4.8 | 12.9 | 0.00 | 0.05 | 0.00 | 50 | 1008.6 |
| 20260503140204 | 8 | 294 | 6.4 | 14.5 | 0.00 | 0.05 | 0.00 | 51 | 1009.4 |
| 20260503130704 | 7 | 0 | 8.0 | 12.9 | 0.00 | 0.05 | 0.00 | 61 | 1009.9 |
| 20260503130204 | 7 | 24 | 4.8 | 11.3 | 0.00 | 0.05 | 0.00 | 62 | 1009.9 |
| 20260503120204 | 6 | 11 | 3.2 | 11.3 | 0.00 | 0.05 | 0.00 | 74 | 1010.0 |
| 20260503110704 | 4 | 235 | 3.2 | 4.8 | 0.00 | 0.05 | 0.00 | 86 | 1010.0 |
| 20260503110204 | 3 | 227 | 3.2 | 4.8 | 0.00 | 0.05 | 0.00 | 87 | 1009.9 |
| 20260503100203 | 1 | 213 | 0.0 | 0.0 | 0.00 | 0.05 | 0.00 | 91 | 1009.8 |
| 20260503090204 | 2 | 213 | 0.0 | 1.6 | 0.00 | 0.05 | 0.00 | 90 | 1009.8 |
| 20260503080704 | 3 | 213 | 1.6 | 3.2 | 0.00 | 0.05 | 0.00 | 90 | 1009.9 |
| 20260503080204 | 3 | 213 | 0.0 | 3.2 | 0.00 | 0.05 | 0.00 | 89 | 1009.9 |
| 20260503072705 | 3 | 213 | 0.0 | 3.2 | 0.00 | 0.05 | 0.00 | 89 | 1009.9 |
| 20260503072204 | 3 | 213 | 1.6 | 3.2 | 0.00 | 0.05 | 0.00 | 89 | 1009.9 |
| 20260503070705 | 4 | 213 | 0.0 | 1.6 | 0.00 | 0.05 | 0.00 | 88 | 1010.0 |
| 20260503070205 | 4 | 213 | 0.0 | 4.8 | 0.00 | 0.05 | 0.00 | 88 | 1010.0 |
| 20260503060205 | 5 | 213 | 1.6 | 4.8 | 0.00 | 0.05 | 0.00 | 87 | 1010.1 |
| 20260503054706 | 5 | 213 | 0.0 | 3.2 | 0.00 | 0.05 | 0.00 | 87 | 1010.1 |
| 20260503054205 | 5 | 213 | 1.6 | 4.8 | 0.00 | 0.05 | 0.00 | 88 | 1010.1 |
| 20260503052705 | 5 | 213 | 1.6 | 4.8 | 0.00 | 0.05 | 0.00 | 89 | 1010.3 |
| 20260503052205 | 5 | 213 | 3.2 | 4.8 | 0.00 | 0.05 | 0.00 | 89 | 1010.2 |
| 20260503050705 | 5 | 212 | 0.0 | 3.2 | 0.00 | 0.05 | 0.00 | 90 | 1010.3 |
| 20260503050205 | 5 | 212 | 1.6 | 3.2 | 0.00 | 0.05 | 0.00 | 89 | 1010.3 |
| 20260503044705 | 5 | 212 | 3.2 | 4.8 | 0.00 | 0.05 | 0.00 | 89 | 1010.5 |
| 20260503044205 | 4 | 212 | 0.0 | 0.0 | 0.00 | 0.05 | 0.00 | 89 | 1010.5 |
| 20260503042704 | 5 | 212 | 0.0 | 0.0 | 0.00 | 0.05 | 0.00 | 88 | 1010.7 |
| 20260503042205 | 5 | 212 | 0.0 | 1.6 | 0.00 | 0.05 | 0.00 | 88 | 1010.7 |
| 20260503040705 | 5 | 212 | 1.6 | 4.8 | 0.00 | 0.05 | 0.00 | 87 | 1010.9 |
| 20260503040205 | 5 | 212 | 1.6 | 4.8 | 0.00 | 0.05 | 0.00 | 87 | 1010.8 |
| 20260503034705 | 5 | 212 | 0.0 | 1.6 | 0.00 | 0.05 | 0.05 | 86 | 1010.8 |
| 20260503034205 | 5 | 212 | 0.0 | 1.6 | 0.00 | 0.05 | 0.05 | 86 | 1010.8 |
| 20260503032705 | 5 | 212 | 0.0 | 1.6 | 0.00 | 0.05 | 0.05 | 85 | 1010.7 |
| 20260503032205 | 5 | 212 | 0.0 | 3.2 | 0.00 | 0.05 | 0.05 | 85 | 1010.8 |
| 20260503030705 | 5 | 212 | 0.0 | 0.0 | 0.00 | 0.05 | 0.05 | 85 | 1011.0 |
| 20260503030205 | 5 | 212 | 0.0 | 0.0 | 0.00 | 0.05 | 0.05 | 84 | 1011.0 |
| 20260503024705 | 6 | 212 | 0.0 | 0.0 | 0.00 | 0.05 | 0.05 | 84 | 1011.0 |
| 20260503024204 | 6 | 212 | 0.0 | 3.2 | 0.00 | 0.05 | 0.05 | 84 | 1011.1 |
| 20260503022705 | 6 | 212 | 1.6 | 4.8 | 0.00 | 0.05 | 0.05 | 83 | 1011.2 |
| 20260503022205 | 6 | 212 | 0.0 | 3.2 | 0.00 | 0.05 | 0.05 | 83 | 1011.2 |
| 20260503020704 | 6 | 212 | 1.6 | 3.2 | 0.00 | 0.05 | 0.05 | 83 | 1011.3 |
| 20260503020205 | 6 | 212 | 3.2 | 4.8 | 0.00 | 0.05 | 0.05 | 83 | 1011.3 |
| 20260503014704 | 6 | 212 | 3.2 | 8.0 | 0.00 | 0.05 | 0.05 | 83 | 1011.2 |
| 20260503014204 | 6 | 202 | 4.8 | 4.8 | 0.00 | 0.05 | 0.05 | 84 | 1011.2 |
| 20260503012704 | 6 | 178 | 1.6 | 4.8 | 0.00 | 0.05 | 0.05 | 83 | 1010.9 |
| 20260503012205 | 6 | 178 | 1.6 | 4.8 | 0.00 | 0.05 | 0.05 | 83 | 1011.0 |
| 20260503010705 | 6 | 178 | 3.2 | 4.8 | 0.00 | 0.05 | 0.05 | 82 | 1011.0 |
| 20260503010205 | 6 | 178 | 3.2 | 4.8 | 0.00 | 0.05 | 0.05 | 82 | 1011.0 |
| 20260503004705 | 6 | 175 | 1.6 | 3.2 | 0.00 | 0.05 | 0.05 | 80 | 1010.8 |
| 20260503004205 | 6 | 175 | 0.0 | 8.0 | 0.00 | 0.05 | 0.05 | 80 | 1010.8 |
| 20260503002705 | 6 | 174 | 1.6 | 4.8 | 0.00 | 0.05 | 0.05 | 79 | 1010.7 |
| 20260503002204 | 6 | 173 | 3.2 | 9.7 | 0.00 | 0.05 | 0.05 | 78 | 1010.7 |
| 20260503000704 | 7 | 178 | 3.2 | 8.0 | 0.00 | 0.05 | 0.05 | 77 | 1010.6 |
| 20260503000204 | 7 | 177 | 3.2 | 8.0 | 0.00 | 0.05 | 0.05 | 77 | 1010.5 |
| 20260502234705 | 7 | 195 | 4.8 | 8.0 | 0.00 | 0.05 | 0.05 | 75 | 1010.6 |
| 20260502234205 | 7 | 196 | 3.2 | 8.0 | 0.00 | 0.05 | 0.05 | 75 | 1010.6 |
| 20260502232705 | 7 | 190 | 3.2 | 4.8 | 0.00 | 0.05 | 0.05 | 74 | 1010.4 |
| 20260502232205 | 7 | 190 | 3.2 | 9.7 | 0.00 | 0.05 | 0.05 | 74 | 1010.4 |
| 20260502230705 | 7 | 219 | 3.2 | 4.8 | 0.00 | 0.05 | 0.05 | 73 | 1010.2 |
| 20260502230205 | 7 | 218 | 4.8 | 9.7 | 0.00 | 0.05 | 0.05 | 72 | 1010.2 |